sat.trackr.live / text

‹ back to catalog

STARLINK-37424

NORAD 69192 · 2026-114L

PAYLOAD ACTIVE UNKNOWN

§ Identity

Operator
Country
US
Launch date
2026-05-25
Launch site
AFETR
Launch vehicle
Mass (kg)
RCS (m²)

Purposes: comms

External: N2YO · Heavens-Above · Gunter

§ Orbital elements

Epoch: 2026-09-20T00:53:49.915392Z

Period
93.85 min
Inclination
53.1573°
Eccentricity
0.0002389
Mean motion
15.34426339 rev/d
Perigee alt
461.0 km
Apogee alt
464.3 km
Semi-major
6,840.8 km
B*
7.4853e-4
RAAN
115.9926°
Arg perigee
39.8075°
Mean anomaly
320.3103°
Rev number
1,937

§ Raw data

STARLINK-374241 69192U 26114L   26263.03738328  .00025020  00000+0  74853-3 0  99922 69192  53.1573 115.9926 0002389  39.8075 320.3103 15.34426339 19372

JSON: /api/v1/satellites/69192 · /tle

For live sub-satellite position, see the globe view (requires WebGL).

§ Visibility from observer

Set your observer location to see the next 7 days of passes ≥ 10°. The values pass through the URL so the page stays shareable.

No JS? Fill the form by hand. The geolocation button needs JavaScript.